{"data":{"norad_id":37192,"epoch":"2026-09-19T21:36:45.124992Z","epoch_age_seconds":69955,"freshness":"FRESH","line1":"1 37192U 10054E   26262.90052228 -.00000091  00000+0  69179-4 0  9994","line2":"2 37192  51.9934 221.8121 0000536  67.2731 327.1858 12.62260558733905","mean_motion":12.62260558,"eccentricity":5.36e-5,"inclination_deg":51.9934,"raan_deg":221.8121,"arg_perigee_deg":67.2731,"mean_anomaly_deg":327.1858,"bstar":6.9179e-5,"rev_number":73390,"period_min":114.08104221221,"perigee_km":1413.2101391505,"apogee_km":1414.0454163347,"semimajor_km":7791.7647777426,"source":"CELESTRAK","updated_at":"2026-09-20T09:00:45.037630Z"}}